SCP
0 0 0 0 0 0 0 0 0 0 0 0 0 0 0 0 0 0 0 0 0 0 0 0 0 0 0 0 0 0 0 0 0 0 0 0 0 0 0 0 0 0 0 0
0 0 0 0 0 0 0 0 0 0 0 0 0 0 0 0 0 0 0 0 0 0 0 0 0 0 0 0 0 0 0 0 0 0 0 0 0 0 0 0 0 0 0 0
0 0 0 0 0 0 0 0 0 0 0 0 0 0 0 0 0 0 0 0 0 0 0 0 0 0 0 0 0 0 0 0 0 0 0 0 0 0 0 0 0 0 0 0
0 0 0 0 0 0 0 0 0 0 0 0 0 0 0 0 0 0 0 0 0 0 0 0 0 0 0 0 0 0 0 0 0 0 0 0 0 0 0 0 0 0 0 0
0 0 0 0 0 0 0 0 0 0 0 0 0 0 0 0 0 0 0 0 0 0 0 0 0 0 0 0 0 0 0 0 0 0 0 0 0 0 0 0 0 0 0 0
0 0 0 0 0 0 0 0 0 0 0 0 0 0 0 0 0 0 0 0 0 0 0 0 0 0 0 0 0 0 0 0 0 0 0 0 0 0 0 0 0 0 0 0
0 0 0 0 0 0 0 0 0 0 0 0 0 0 0 0 0 0 0 0 0 0 0 0 0 0 0 0 0 0 0 0 0 0 0 0 0 0 0 0 0 0 0 0
0 0 0 0 0 0 0 0 0 0 0 0 0 0 0 0 0 0 0 0 0 0 0 0 0 0 0 0 0 0 0 0 0 0 0 0 0 0 0 0 0 0 0 0
0 0 0 0 0 0 0 0 0 0 0 0 0 0 0 0 0 0 0 0 0 0 0 0 0 0 0 0 0 0 0 0 0 0 0 0 0 0 0 0 0 0 0 0
0 0 0 0 0 0 0 0 0 0 0 0 0 0 0 0 0 0 0 0 0 0 0 0 0 0 0 0 0 0 0 0 0 0 0 0 0 0 0 0 0 0 0 0
0 0 0 0 0 0 0 0 0 0 0 0 0 0 0 0 0 0 0 0 0 0 0 0 0 0 0 0 0 0 0 0 0 0 0 0 0 0 0 0 0 0 0 0
0 0 0 0 0 0 0 0 0 0 0 0 0 0 0 0 0 0 0 0 0 0 0 0 0 0 0 0 0 0 0 0 0 0 0 0 0 0 0 0 0 0 0 0
0 0 0 0 0 0 0 0 0 0 0 0 0 0 0 0 0 0 0 0 0 0 0 0 0 0 0 0 0 0 0 0 0 0 0 0 0 0 0 0 0 0 0 0
0 0 0 0 0 0 0 0 0 0 0 0 0 0 0 0 0 0 0 0 0 0 0 0 0 0 0 0 0 0 0 0 0 0 0 0 0 0 0 0 0 0 0 0
0 0 0 0 0 0 0 0 0 0 0 0 0 0 0 0 0 0 0 0 0 0 0 0 0 0 0 0 0 0 0 0 0 0 0 0 0 0 0 0 0 0 0 0
0 0 0 0 0 0 0 0 0 0 0 0 0 0 0 0 0 0 0 0 0 0 0 0 0 0 0 0 0 0 0 0 0 0 0 0 0 0 0 0 0 0 0 0
0 0 0 0 0 0 0 0 0 0 0 0 0 0 0 0 0 0 0 0 0 0 0 0 0 0 0 0 0 0 0 0 0 0 0 0 0 0 0 0 0 0 0 0
0 0 0 0 0 0 0 0 0 0 0 0 0 0 0 0 0 0 0 0 0 0 0 0 0 0 0 0 0 0 0 0 0 0 0 0 0 0 0 0 0 0 0 0
0 0 0 0 0 0 0 0 0 0 0 0 0 0 0 0 0 0 0 0 0 0 0 0 0 0 0 0 0 0 0 0 0 0 0 0 0 0 0 0 0 0 0 0
0 0 0 0 0 0 0 0 0 0 0 0 0 0 0 0 0 0 0 0 0 0 0 0 0 0 0 0 0 0 0 0 0 0 0 0 0 0 0 0 0 0 0 0
0 0 0 0 0 0 0 0 0 0 0 0 0 0 0 0 0 0 0 0 0 0 0 0 0 0 0 0 0 0 0 0 0 0 0 0 0 0 0 0 0 0 0 0
0 0 0 0 0 0 0 0 0 0 0 0 0 0 0 0 0 0 0 0 0 0 0 0 0 0 0 0 0 0 0 0 0 0 0 0 0 0 0 0 0 0 0 0
0 0 0 0 0 0 0 0 0 0 0 0 0 0 0 0 0 0 0 0 0 0 0 0 0 0 0 0 0 0 0 0 0 0 0 0 0 0 0 0 0 0 0 0
0 0 0 0 0 0 0 0 0 0 0 0 0 0 0 0 0 0 0 0 0 0 0 0 0 0 0 0 0 0 0 0 0 0 0 0 0 0 0 0 0 0 0 0
0 0 0 0 0 0 0 0 0 0 0 0 0 0 0 0 0 0 0 0 0 0 0 0 0 0 0 0 0 0 0 0 0 0 0 0 0 0 0 0 0 0 0 0
0 0 0 0 0 0 0 0 0 0 0 0 0 0 0 0 0 0 0 0 0 0 0 0 0 0 0 0 0 0 0 0 0 0 0 0 0 0 0 0 0 0 0 0
0 0 0 0 0 0 0 0 0 0 0 0 0 0 0 0 0 0 0 0 0 0 0 0 0 0 0 0 0 0 0 0 0 0 0 0 0 0 0 0 0 0 0 0
Wind_Speed_500mb
55 27 28 43 45 57 54 60 47 68 44 41 16 20 26 44 46 47 60 68 78 86 77 69 65 61 59 59 59 59 58 56 52 50 51 54 53 53 50 47 40 35 31 27
51 47 39 24 30 42 59 66 50 55 43 16 34 43 10 29 39 52 58 72 82 89 77 71 68 69 68 63 60 62 62 62 62 64 65 60 57 54 45 38 34 22 14 22
52 42 13 41 64 48 32 47 53 48 68 12 25 28 29 44 49 57 64 72 83 89 82 76 71 73 78 71 68 73 72 67 73 72 66 57 50 40 35 24 4 16 26 29
31 11 40 48 43 49 49 36 39 51 11 37 35 57 73 76 60 65 66 70 81 88 85 80 75 83 87 80 78 78 71 68 72 64 53 45 33 20 7 26 28 24 26 39
16 27 17 27 38 37 37 61 36 38 39 33 44 55 35 61 58 54 51 52 70 81 84 78 81 87 87 87 83 79 74 66 60 53 46 34 7 25 36 41 33 25 27 29
9 20 30 64 16 38 23 45 51 52 37 19 33 28 19 60 71 66 57 49 54 72 74 77 77 74 75 79 79 75 70 67 57 46 21 8 25 41 27 30 25 22 22 22
15 7 14 11 8 49 27 30 35 62 59 67 33 47 52 52 56 55 52 56 60 58 61 63 61 64 70 68 69 73 71 56 36 24 16 34 47 18 29 23 21 19 22 23
11 13 23 13 9 38 15 6 14 48 52 52 67 60 54 49 49 47 45 45 46 49 47 51 53 54 66 79 79 67 50 36 29 24 22 19 19 26 23 21 19 20 20 18
21 15 8 13 13 29 13 10 11 41 48 68 61 59 69 58 48 45 46 43 42 43 52 56 65 68 80 70 61 49 42 36 30 23 22 24 23 21 16 12 15 18 18 17
8 12 10 16 13 14 14 11 9 22 47 56 56 57 56 54 52 44 37 41 46 56 67 70 70 63 54 53 48 39 33 31 25 23 23 23 19 13 13 10 9 14 16 19
6 13 13 33 37 25 15 17 16 29 43 43 49 59 55 52 53 52 57 58 63 67 73 72 62 46 40 37 35 33 32 27 27 25 24 23 22 18 13 7 11 12 11 12
22 20 30 26 68 54 41 53 52 38 34 40 44 61 64 63 65 69 70 66 64 64 63 59 47 40 37 35 34 35 36 33 30 29 29 27 25 21 12 11 8 4 3 7
12 41 65 48 45 65 67 60 62 62 60 60 58 60 67 64 59 59 59 61 62 60 52 45 43 42 41 38 37 36 29 29 29 31 31 31 29 16 13 10 1 4 7 12
38 41 22 45 48 73 67 66 60 58 62 67 69 63 65 63 58 57 58 55 53 50 44 41 40 40 40 39 39 35 31 27 27 29 33 33 24 16 13 8 7 10 11 12
45 56 54 58 59 74 65 65 67 61 58 62 63 67 67 70 63 55 52 51 48 45 43 41 40 41 42 41 40 39 36 31 26 29 32 28 18 13 11 10 11 16 13 13
44 48 37 62 69 70 68 66 73 67 68 66 64 62 62 59 56 52 47 50 52 53 48 44 42 42 43 43 41 39 33 25 28 31 31 25 21 12 13 15 18 16 13 15
38 23 50 49 56 55 62 77 78 78 73 73 68 65 64 62 59 56 56 52 44 41 41 39 40 44 45 45 47 44 40 37 35 34 30 26 19 17 18 22 22 16 14 14
33 51 57 61 63 68 65 73 78 77 73 71 73 70 65 58 55 52 48 46 42 39 36 38 40 43 50 52 50 44 43 37 34 33 33 28 26 22 23 22 21 20 18 18
37 51 58 70 75 79 79 78 76 66 78 77 73 63 53 47 43 43 43 42 41 41 40 40 42 43 48 48 46 43 37 36 38 36 33 30 26 25 24 23 21 20 21 21
50 49 56 67 68 66 66 63 76 73 66 60 53 49 44 39 36 35 37 36 34 35 38 45 48 46 44 42 42 39 35 35 35 32 28 26 25 26 25 24 23 21 21 20
57 61 58 58 63 69 74 70 66 63 57 47 40 38 37 38 39 38 39 39 39 42 43 45 44 43 41 39 35 34 34 29 26 28 25 26 24 25 26 25 25 23 22 22
56 60 62 60 59 61 58 57 52 51 53 48 41 42 44 40 36 34 30 33 36 38 37 35 37 37 36 39 36 31 27 25 21 23 23 26 27 26 28 29 30 27 26 26
48 47 50 51 54 55 54 53 54 53 53 50 45 40 37 38 38 41 38 35 34 33 31 29 35 38 35 33 29 29 30 28 24 24 26 28 29 29 30 31 30 28 30 29
35 37 41 43 44 48 52 50 49 49 48 44 38 37 39 42 37 29 24 33 34 35 35 34 32 29 26 23 30 28 25 25 26 27 28 29 29 30 31 32 30 28 30 30
26 31 34 39 41 43 44 45 44 41 39 37 38 38 37 31 21 34 26 27 26 30 36 35 32 23 21 18 24 28 22 19 25 29 31 29 30 31 32 33 31 30 30 31
27 29 29 28 30 36 40 42 44 42 38 35 32 32 42 34 29 27 26 23 25 24 27 26 25 25 23 22 25 25 21 18 25 30 31 30 30 32 33 33 32 32 32 33
17 22 25 26 26 29 33 34 34 38 37 35 37 44 45 37 31 31 27 21 17 16 22 24 23 24 23 25 25 26 25 21 24 29 31 32 32 34 34 34 33 32 32 34
Wind_Direction_500mb
229 228 209 217 217 213 212 219 217 236 234 228 206 205 216 229 231 214 209 204 207 204 205 210 210 211 212 213 212 207 207 211 215 218 223 225 227 229 225 221 234 235 232 243
232 226 243 251 233 221 221 225 230 239 250 169 220 245 236 243 222 205 199 207 208 207 210 214 214 217 216 215 213 215 217 220 220 217 221 223 221 217 217 231 211 214 237 300
233 226 220 250 238 231 238 230 225 228 237 190 211 219 219 228 221 217 214 214 211 211 217 222 222 222 219 218 215 213 216 219 218 218 217 210 202 204 189 166 115 334 309 303
235 144 217 238 237 234 233 237 237 246 229 216 217 220 230 233 237 230 226 222 218 218 223 227 226 222 220 220 219 213 210 210 210 204 196 187 173 144 79 319 309 303 291 288
221 220 270 269 227 208 214 245 227 239 239 226 217 229 236 229 230 227 231 237 233 228 229 229 230 225 220 218 217 210 204 202 189 182 173 146 356 324 314 303 294 277 272 289
155 221 219 242 169 193 191 253 232 226 220 196 183 223 219 224 233 236 227 230 221 235 231 229 229 229 223 218 214 206 194 171 166 158 162 277 304 302 300 259 246 260 276 286
204 225 272 249 237 163 175 245 204 214 214 213 208 222 224 218 221 220 218 215 215 218 219 221 223 222 212 202 190 172 165 162 165 200 235 280 297 235 224 238 244 254 266 271
181 195 244 200 147 175 219 204 228 207 208 201 208 212 205 186 182 184 183 184 189 191 194 197 200 195 177 164 160 161 165 182 197 222 264 260 209 218 225 225 242 265 279 286
186 208 202 193 198 225 183 159 185 184 183 186 178 174 169 169 164 160 163 168 172 180 174 165 161 171 160 161 164 175 186 196 198 178 196 211 206 208 214 252 280 296 305 302
121 223 219 228 162 141 174 190 169 170 175 169 154 159 158 155 153 160 157 174 169 162 156 156 163 165 169 173 180 185 185 175 181 205 194 190 188 197 226 245 287 302 304 318
266 254 233 244 238 218 163 143 102 159 161 157 156 157 158 155 155 162 165 165 161 162 159 160 166 170 175 176 182 184 184 192 194 189 187 193 192 201 207 260 309 318 316 315
215 186 195 213 223 221 222 209 173 170 162 158 166 166 167 165 167 164 161 159 161 163 166 170 170 174 183 185 190 195 193 187 187 190 197 201 201 204 235 280 305 329 273 312
207 207 209 216 202 209 209 200 195 187 179 169 167 167 170 166 166 166 165 166 169 169 173 173 172 174 179 182 186 188 189 193 194 198 204 210 207 215 246 246 149 306 273 268
216 185 180 187 189 196 193 187 186 187 180 180 175 175 176 172 170 171 171 169 167 164 163 166 169 175 176 180 183 182 180 187 197 207 213 209 216 233 235 237 247 231 249 257
207 209 206 195 189 185 192 185 183 181 180 173 174 173 174 171 169 171 170 167 167 170 173 180 183 185 185 185 186 184 188 193 203 216 215 212 224 236 242 256 215 229 250 244
196 204 187 177 175 182 184 184 177 169 171 167 169 168 168 170 168 168 168 174 180 185 190 191 193 196 192 190 188 190 197 209 219 214 207 207 210 223 232 225 222 225 244 240
134 131 153 147 161 166 180 180 171 167 165 164 163 164 167 168 165 165 165 168 174 178 181 180 185 191 195 194 198 203 208 207 205 209 211 209 219 237 227 218 220 226 237 243
215 196 186 186 180 164 159 163 163 162 162 164 164 164 164 165 164 165 170 175 179 184 184 187 189 190 191 193 198 203 209 212 205 200 199 209 217 243 226 213 212 223 230 234
204 190 176 174 171 166 160 153 155 163 160 159 157 158 164 169 175 178 179 182 189 188 188 189 192 194 196 198 202 208 209 203 197 203 207 214 231 230 220 208 213 225 229 226
155 157 162 156 155 151 154 164 164 159 158 156 157 160 167 172 177 182 182 185 192 197 197 195 194 194 196 202 209 209 204 202 201 209 221 224 219 217 208 209 214 223 224 220
140 150 158 162 160 160 159 159 159 157 156 163 169 171 174 173 178 186 193 198 200 200 199 200 200 200 200 207 200 194 192 203 213 216 212 208 209 209 210 208 213 223 215 206
138 141 140 142 147 150 156 160 163 161 162 165 169 171 175 182 186 187 196 204 197 187 187 195 199 201 200 191 189 191 197 200 205 205 200 203 209 211 210 213 214 217 216 214
138 139 138 144 152 154 158 165 167 167 168 170 174 176 182 181 182 181 177 173 174 169 175 177 185 188 189 194 197 195 199 202 207 202 202 206 208 212 214 215 217 220 216 219
143 147 151 154 158 160 160 159 162 165 170 172 179 182 180 170 159 155 165 169 168 175 179 187 188 188 193 203 194 199 200 205 199 200 202 206 210 216 218 220 221 217 217 223
156 152 155 158 165 166 165 166 167 172 172 171 172 171 170 168 177 159 166 167 180 194 194 188 183 193 206 205 205 192 197 198 197 200 205 210 212 218 220 220 221 222 226 231
155 161 157 158 163 164 167 171 176 178 179 174 170 173 160 157 163 159 164 179 192 201 182 180 184 191 195 188 185 190 196 201 202 206 210 216 219 220 220 220 222 228 231 235
162 159 153 153 160 164 167 173 174 173 175 177 178 173 170 170 172 181 185 192 205 215 181 184 185 187 188 192 196 203 213 218 217 215 218 223 223 217 219 224 228 230 233 237
Wind_Speed_850mb
55 27 28 43 45 57 54 60 47 68 44 41 16 20 26 44 46 47 60 68 78 86 77 69 65 61 59 59 59 59 58 56 52 50 51 54 53 53 50 47 40 35 31 27
51 47 39 24 30 42 59 66 50 55 43 16 34 43 10 29 39 52 58 72 82 89 77 71 68 69 68 63 60 62 62 62 62 64 65 60 57 54 45 38 34 22 14 22
52 42 13 41 64 48 32 47 53 48 68 12 25 28 29 44 49 57 64 72 83 89 82 76 71 73 78 71 68 73 72 67 73 72 66 57 50 40 35 24 4 16 26 29
31 11 40 48 43 49 49 36 39 51 11 37 35 57 73 76 60 65 66 70 81 88 85 80 75 83 87 80 78 78 71 68 72 64 53 45 33 20 7 26 28 24 26 39
16 27 17 27 38 37 37 61 36 38 39 33 44 55 35 61 58 54 51 52 70 81 84 78 81 87 87 87 83 79 74 66 60 53 46 34 7 25 36 41 33 25 27 29
9 20 30 64 16 38 23 45 51 52 37 19 33 28 19 60 71 66 57 49 54 72 74 77 77 74 75 79 79 75 70 67 57 46 21 8 25 41 27 30 25 22 22 22
15 7 14 11 8 49 27 30 35 62 59 67 33 47 52 52 56 55 52 56 60 58 61 63 61 64 70 68 69 73 71 56 36 24 16 34 47 18 29 23 21 19 22 23
11 13 23 13 9 38 15 6 14 48 52 52 67 60 54 49 49 47 45 45 46 49 47 51 53 54 66 79 79 67 50 36 29 24 22 19 19 26 23 21 19 20 20 18
21 15 8 13 13 29 13 10 11 41 48 68 61 59 69 58 48 45 46 43 42 43 52 56 65 68 80 70 61 49 42 36 30 23 22 24 23 21 16 12 15 18 18 17
8 12 10 16 13 14 14 11 9 22 47 56 56 57 56 54 52 44 37 41 46 56 67 70 70 63 54 53 48 39 33 31 25 23 23 23 19 13 13 10 9 14 16 19
6 13 13 33 37 25 15 17 16 29 43 43 49 59 55 52 53 52 57 58 63 67 73 72 62 46 40 37 35 33 32 27 27 25 24 23 22 18 13 7 11 12 11 12
22 20 30 26 68 54 41 53 52 38 34 40 44 61 64 63 65 69 70 66 64 64 63 59 47 40 37 35 34 35 36 33 30 29 29 27 25 21 12 11 8 4 3 7
12 41 65 48 45 65 67 60 62 62 60 60 58 60 67 64 59 59 59 61 62 60 52 45 43 42 41 38 37 36 29 29 29 31 31 31 29 16 13 10 1 4 7 12
38 41 22 45 48 73 67 66 60 58 62 67 69 63 65 63 58 57 58 55 53 50 44 41 40 40 40 39 39 35 31 27 27 29 33 33 24 16 13 8 7 10 11 12
45 56 54 58 59 74 65 65 67 61 58 62 63 67 67 70 63 55 52 51 48 45 43 41 40 41 42 41 40 39 36 31 26 29 32 28 18 13 11 10 11 16 13 13
44 48 37 62 69 70 68 66 73 67 68 66 64 62 62 59 56 52 47 50 52 53 48 44 42 42 43 43 41 39 33 25 28 31 31 25 21 12 13 15 18 16 13 15
38 23 50 49 56 55 62 77 78 78 73 73 68 65 64 62 59 56 56 52 44 41 41 39 40 44 45 45 47 44 40 37 35 34 30 26 19 17 18 22 22 16 14 14
33 51 57 61 63 68 65 73 78 77 73 71 73 70 65 58 55 52 48 46 42 39 36 38 40 43 50 52 50 44 43 37 34 33 33 28 26 22 23 22 21 20 18 18
37 51 58 70 75 79 79 78 76 66 78 77 73 63 53 47 43 43 43 42 41 41 40 40 42 43 48 48 46 43 37 36 38 36 33 30 26 25 24 23 21 20 21 21
50 49 56 67 68 66 66 63 76 73 66 60 53 49 44 39 36 35 37 36 34 35 38 45 48 46 44 42 42 39 35 35 35 32 28 26 25 26 25 24 23 21 21 20
57 61 58 58 63 69 74 70 66 63 57 47 40 38 37 38 39 38 39 39 39 42 43 45 44 43 41 39 35 34 34 29 26 28 25 26 24 25 26 25 25 23 22 22
56 60 62 60 59 61 58 57 52 51 53 48 41 42 44 40 36 34 30 33 36 38 37 35 37 37 36 39 36 31 27 25 21 23 23 26 27 26 28 29 30 27 26 26
48 47 50 51 54 55 54 53 54 53 53 50 45 40 37 38 38 41 38 35 34 33 31 29 35 38 35 33 29 29 30 28 24 24 26 28 29 29 30 31 30 28 30 29
35 37 41 43 44 48 52 50 49 49 48 44 38 37 39 42 37 29 24 33 34 35 35 34 32 29 26 23 30 28 25 25 26 27 28 29 29 30 31 32 30 28 30 30
26 31 34 39 41 43 44 45 44 41 39 37 38 38 37 31 21 34 26 27 26 30 36 35 32 23 21 18 24 28 22 19 25 29 31 29 30 31 32 33 31 30 30 31
27 29 29 28 30 36 40 42 44 42 38 35 32 32 42 34 29 27 26 23 25 24 27 26 25 25 23 22 25 25 21 18 25 30 31 30 30 32 33 33 32 32 32 33
17 22 25 26 26 29 33 34 34 38 37 35 37 44 45 37 31 31 27 21 17 16 22 24 23 24 23 25 25 26 25 21 24 29 31 32 32 34 34 34 33 32 32 34
Wind_Direction_850mb
229 228 209 217 217 213 212 219 217 236 234 228 206 205 216 229 231 214 209 204 207 204 205 210 210 211 212 213 212 207 207 211 215 218 223 225 227 229 225 221 234 235 232 243
232 226 243 251 233 221 221 225 230 239 250 169 220 245 236 243 222 205 199 207 208 207 210 214 214 217 216 215 213 215 217 220 220 217 221 223 221 217 217 231 211 214 237 300
233 226 220 250 238 231 238 230 225 228 237 190 211 219 219 228 221 217 214 214 211 211 217 222 222 222 219 218 215 213 216 219 218 218 217 210 202 204 189 166 115 334 309 303
235 144 217 238 237 234 233 237 237 246 229 216 217 220 230 233 237 230 226 222 218 218 223 227 226 222 220 220 219 213 210 210 210 204 196 187 173 144 79 319 309 303 291 288
221 220 270 269 227 208 214 245 227 239 239 226 217 229 236 229 230 227 231 237 233 228 229 229 230 225 220 218 217 210 204 202 189 182 173 146 356 324 314 303 294 277 272 289
155 221 219 242 169 193 191 253 232 226 220 196 183 223 219 224 233 236 227 230 221 235 231 229 229 229 223 218 214 206 194 171 166 158 162 277 304 302 300 259 246 260 276 286
204 225 272 249 237 163 175 245 204 214 214 213 208 222 224 218 221 220 218 215 215 218 219 221 223 222 212 202 190 172 165 162 165 200 235 280 297 235 224 238 244 254 266 271
181 195 244 200 147 175 219 204 228 207 208 201 208 212 205 186 182 184 183 184 189 191 194 197 200 195 177 164 160 161 165 182 197 222 264 260 209 218 225 225 242 265 279 286
186 208 202 193 198 225 183 159 185 184 183 186 178 174 169 169 164 160 163 168 172 180 174 165 161 171 160 161 164 175 186 196 198 178 196 211 206 208 214 252 280 296 305 302
121 223 219 228 162 141 174 190 169 170 175 169 154 159 158 155 153 160 157 174 169 162 156 156 163 165 169 173 180 185 185 175 181 205 194 190 188 197 226 245 287 302 304 318
266 254 233 244 238 218 163 143 102 159 161 157 156 157 158 155 155 162 165 165 161 162 159 160 166 170 175 176 182 184 184 192 194 189 187 193 192 201 207 260 309 318 316 315
215 186 195 213 223 221 222 209 173 170 162 158 166 166 167 165 167 164 161 159 161 163 166 170 170 174 183 185 190 195 193 187 187 190 197 201 201 204 235 280 305 329 273 312
207 207 209 216 202 209 209 200 195 187 179 169 167 167 170 166 166 166 165 166 169 169 173 173 172 174 179 182 186 188 189 193 194 198 204 210 207 215 246 246 149 306 273 268
216 185 180 187 189 196 193 187 186 187 180 180 175 175 176 172 170 171 171 169 167 164 163 166 169 175 176 180 183 182 180 187 197 207 213 209 216 233 235 237 247 231 249 257
207 209 206 195 189 185 192 185 183 181 180 173 174 173 174 171 169 171 170 167 167 170 173 180 183 185 185 185 186 184 188 193 203 216 215 212 224 236 242 256 215 229 250 244
196 204 187 177 175 182 184 184 177 169 171 167 169 168 168 170 168 168 168 174 180 185 190 191 193 196 192 190 188 190 197 209 219 214 207 207 210 223 232 225 222 225 244 240
134 131 153 147 161 166 180 180 171 167 165 164 163 164 167 168 165 165 165 168 174 178 181 180 185 191 195 194 198 203 208 207 205 209 211 209 219 237 227 218 220 226 237 243
215 196 186 186 180 164 159 163 163 162 162 164 164 164 164 165 164 165 170 175 179 184 184 187 189 190 191 193 198 203 209 212 205 200 199 209 217 243 226 213 212 223 230 234
204 190 176 174 171 166 160 153 155 163 160 159 157 158 164 169 175 178 179 182 189 188 188 189 192 194 196 198 202 208 209 203 197 203 207 214 231 230 220 208 213 225 229 226
155 157 162 156 155 151 154 164 164 159 158 156 157 160 167 172 177 182 182 185 192 197 197 195 194 194 196 202 209 209 204 202 201 209 221 224 219 217 208 209 214 223 224 220
140 150 158 162 160 160 159 159 159 157 156 163 169 171 174 173 178 186 193 198 200 200 199 200 200 200 200 207 200 194 192 203 213 216 212 208 209 209 210 208 213 223 215 206
138 141 140 142 147 150 156 160 163 161 162 165 169 171 175 182 186 187 196 204 197 187 187 195 199 201 200 191 189 191 197 200 205 205 200 203 209 211 210 213 214 217 216 214
138 139 138 144 152 154 158 165 167 167 168 170 174 176 182 181 182 181 177 173 174 169 175 177 185 188 189 194 197 195 199 202 207 202 202 206 208 212 214 215 217 220 216 219
143 147 151 154 158 160 160 159 162 165 170 172 179 182 180 170 159 155 165 169 168 175 179 187 188 188 193 203 194 199 200 205 199 200 202 206 210 216 218 220 221 217 217 223
156 152 155 158 165 166 165 166 167 172 172 171 172 171 170 168 177 159 166 167 180 194 194 188 183 193 206 205 205 192 197 198 197 200 205 210 212 218 220 220 221 222 226 231
155 161 157 158 163 164 167 171 176 178 179 174 170 173 160 157 163 159 164 179 192 201 182 180 184 191 195 188 185 190 196 201 202 206 210 216 219 220 220 220 222 228 231 235
162 159 153 153 160 164 167 173 174 173 175 177 178 173 170 170 172 181 185 192 205 215 181 184 185 187 188 192 196 203 213 218 217 215 218 223 223 217 219 224 228 230 233 237